When you browse on this site, cookies collect data to enhance your experience and personalize the content and advertising you see.
Visit our Privacy Policy to learn more. By continuing to use the site, you agree to this use of cookies and data.
  • In Czech Republic
  • List of Countries
  • For 7 days
  • Water Temperature
  • Satellite Maps
  • Weather Map
  • Weather Widgets
  • user-avatar
    Login

    Hourly Weather Berat

    Today, 25 June, Tuesday

    Time Temperature Precipitation Wind Pressure Humidity
    00:00 +22°C° 0 mm 1 mps 744 mmHg 83%
    01:00 +22°C° 0 mm 1 mps 744 mmHg 83%
    02:00 +21°C° 0 mm 2 mps 744 mmHg 81%
    03:00 +20°C° 0 mm 2 mps 744 mmHg 80%
    04:00 +20°C° 0 mm 2 mps 744 mmHg 78%
    05:00 +23°C° 0 mm 2 mps 744 mmHg 73%
    06:00 +25°C° 0 mm 2 mps 744 mmHg 67%
    07:00 +27°C° 0 mm 3 mps 744 mmHg 60%
    08:00 +29°C° 0 mm 3 mps 745 mmHg 54%
    09:00 +30°C° 0 mm 3 mps 745 mmHg 48%
    10:00 +33°C° 0 mm 4 mps 745 mmHg 42%
    11:00 +34°C° 0 mm 3 mps 746 mmHg 40%
    12:00 +34°C° 0 mm 3 mps 746 mmHg 39%
    13:00 +35°C° 0 mm 3 mps 746 mmHg 37%
    14:00 +35°C° 0 mm 3 mps 746 mmHg 39%
    15:00 +34°C° 0 mm 2 mps 746 mmHg 41%
    16:00 +34°C° 0 mm 2 mps 745 mmHg 43%
    17:00 +31°C° 0 mm 2 mps 746 mmHg 49%
    18:00 +29°C° 0 mm 2 mps 746 mmHg 56%
    19:00 +28°C° 0 mm 1 mps 746 mmHg 62%
    20:00 +27°C° 0 mm 2 mps 746 mmHg 63%
    21:00 +26°C° 0 mm 2 mps 746 mmHg 64%
    22:00 +25°C° 0 mm 2 mps 746 mmHg 65%
    23:00 +25°C° 0 mm 2 mps 747 mmHg 65%

    Tomorrow, 26 June, Wednesday

    Time Temperature Precipitation Wind Pressure Humidity
    00:00 +24°C° 0 mm 2 mps 747 mmHg 66%
    01:00 +24°C° 0 mm 2 mps 747 mmHg 67%
    02:00 +24°C° 0 mm 2 mps 747 mmHg 68%
    03:00 +23°C° 0 mm 2 mps 746 mmHg 69%
    04:00 +23°C° 0 mm 2 mps 746 mmHg 70%
    05:00 +25°C° 0 mm 2 mps 746 mmHg 66%
    06:00 +27°C° 0 mm 2 mps 746 mmHg 63%
    07:00 +28°C° 0 mm 2 mps 747 mmHg 59%
    08:00 +30°C° 0 mm 2 mps 747 mmHg 53%
    09:00 +31°C° 0 mm 2 mps 747 mmHg 48%
    10:00 +34°C° 0 mm 3 mps 747 mmHg 42%
    11:00 +35°C° 0 mm 3 mps 747 mmHg 41%
    12:00 +35°C° 0 mm 3 mps 747 mmHg 40%
    13:00 +36°C° 0 mm 3 mps 747 mmHg 39%
    14:00 +35°C° 0 mm 3 mps 746 mmHg 40%
    15:00 +35°C° 0 mm 3 mps 746 mmHg 41%
    16:00 +35°C° 0 mm 3 mps 746 mmHg 43%
    17:00 +33°C° 0 mm 3 mps 746 mmHg 49%
    18:00 +30°C° 0 mm 3 mps 746 mmHg 55%
    19:00 +28°C° 0 mm 2 mps 746 mmHg 61%
    20:00 +28°C° 0 mm 2 mps 746 mmHg 63%
    21:00 +27°C° 0 mm 2 mps 746 mmHg 64%
    22:00 +26°C° 0 mm 2 mps 747 mmHg 66%
    23:00 +25°C° 0 mm 2 mps 746 mmHg 67%

    Day after tomorrow, 27 June, Thursday

    Time Temperature Precipitation Wind Pressure Humidity
    00:00 +25°C° 0 mm 2 mps 746 mmHg 68%
    01:00 +25°C° 0 mm 2 mps 746 mmHg 69%
    02:00 +25°C° 0 mm 2 mps 746 mmHg 69%
    03:00 +25°C° 0 mm 2 mps 746 mmHg 69%
    04:00 +24°C° 0 mm 2 mps 746 mmHg 69%
    05:00 +26°C° 0 mm 2 mps 746 mmHg 65%
    06:00 +28°C° 0 mm 2 mps 746 mmHg 61%
    07:00 +29°C° 0 mm 2 mps 746 mmHg 57%
    08:00 +31°C° 0 mm 1 mps 746 mmHg 51%
    09:00 +32°C° 0 mm 1 mps 746 mmHg 45%
    10:00 +34°C° 0 mm 1 mps 745 mmHg 40%
    11:00 +35°C° 0 mm 2 mps 745 mmHg 38%
    12:00 +36°C° 0 mm 2 mps 745 mmHg 36%
    13:00 +37°C° 0 mm 2 mps 745 mmHg 35%
    14:00 +36°C° 0 mm 3 mps 744 mmHg 38%
    15:00 +35°C° 0 mm 3 mps 744 mmHg 42%
    16:00 +34°C° 0 mm 3 mps 743 mmHg 46%
    17:00 +31°C° 0 mm 2 mps 743 mmHg 52%
    18:00 +29°C° 0 mm 2 mps 743 mmHg 59%
    19:00 +28°C° 0 mm 1 mps 742 mmHg 66%
    20:00 +27°C° 0 mm 1 mps 743 mmHg 67%
    21:00 +26°C° 0 mm 1 mps 743 mmHg 68%
    22:00 +25°C° 0 mm 1 mps 743 mmHg 69%
    23:00 +25°C° 0 mm 1 mps 743 mmHg 68%

    28 June, Friday

    Time Temperature Precipitation Wind Pressure Humidity
    00:00 +24°C° 0 mm 1 mps 743 mmHg 68%
    01:00 +24°C° 0 mm 1 mps 742 mmHg 67%
    02:00 +24°C° 0 mm 1 mps 742 mmHg 66%
    03:00 +24°C° 0 mm 2 mps 742 mmHg 65%
    04:00 +23°C° 0 mm 2 mps 741 mmHg 64%
    05:00 +25°C° 0 mm 1 mps 741 mmHg 60%
    06:00 +27°C° 0 mm 1 mps 742 mmHg 56%
    07:00 +29°C° 0 mm 1 mps 742 mmHg 51%
    08:00 +31°C° 0 mm 1 mps 742 mmHg 46%
    09:00 +32°C° 0 mm 1 mps 742 mmHg 41%
    10:00 +34°C° 0 mm 1 mps 741 mmHg 36%
    11:00 +36°C° 0 mm 2 mps 741 mmHg 35%
    12:00 +37°C° 0 mm 2 mps 741 mmHg 34%
    13:00 +37°C° 0 mm 3 mps 741 mmHg 33%
    14:00 +37°C° 0 mm 3 mps 741 mmHg 37%
    15:00 +36°C° 0 mm 3 mps 740 mmHg 40%
    16:00 +35°C° 0 mm 4 mps 740 mmHg 43%
    17:00 +33°C° 0.1 mm 3 mps 740 mmHg 48%
    18:00 +30°C° 0.1 mm 2 mps 740 mmHg 54%
    19:00 +28°C° 0.1 mm 1 mps 740 mmHg 60%
    20:00 +27°C° 0 mm 1 mps 741 mmHg 62%
    21:00 +26°C° 0 mm 2 mps 741 mmHg 64%
    22:00 +25°C° 0 mm 2 mps 741 mmHg 67%
    23:00 +25°C° 0 mm 2 mps 741 mmHg 67%

    29 June, Saturday

    Time Temperature Precipitation Wind Pressure Humidity
    00:00 +24°C° 0 mm 2 mps 741 mmHg 68%
    01:00 +24°C° 0 mm 3 mps 741 mmHg 69%
    02:00 +22°C° 0 mm 3 mps 741 mmHg 68%
    03:00 +21°C° 0 mm 3 mps 741 mmHg 68%
    04:00 +21°C° 0 mm 3 mps 741 mmHg 68%
    05:00 +22°C° 0 mm 3 mps 741 mmHg 64%
    06:00 +24°C° 0 mm 3 mps 742 mmHg 59%
    07:00 +26°C° 0 mm 3 mps 742 mmHg 55%
    08:00 +27°C° 0 mm 3 mps 742 mmHg 48%
    09:00 +29°C° 0 mm 3 mps 742 mmHg 41%
    10:00 +31°C° 0 mm 3 mps 743 mmHg 34%
    11:00 +33°C° 0 mm 3 mps 743 mmHg 33%
    12:00 +32°C° 0 mm 2 mps 743 mmHg 32%
    13:00 +34°C° 0 mm 2 mps 743 mmHg 32%
    14:00 +34°C° 0 mm 2 mps 742 mmHg 33%
    15:00 +34°C° 0 mm 2 mps 742 mmHg 35%
    16:00 +32°C° 0 mm 2 mps 742 mmHg 36%
    17:00 +31°C° 0 mm 2 mps 743 mmHg 42%
    18:00 +29°C° 0 mm 2 mps 743 mmHg 49%
    19:00 +27°C° 0 mm 2 mps 743 mmHg 55%
    20:00 +26°C° 0 mm 2 mps 743 mmHg 55%
    21:00 +25°C° 0 mm 2 mps 744 mmHg 56%
    22:00 +24°C° 0 mm 2 mps 744 mmHg 56%
    23:00 +23°C° 0 mm 2 mps 744 mmHg 57%

    30 June, Sunday

    Time Temperature Precipitation Wind Pressure Humidity
    00:00 +22°C° 0 mm 3 mps 744 mmHg 58%
    01:00 +21°C° 0 mm 3 mps 744 mmHg 59%
    02:00 +21°C° 0 mm 3 mps 744 mmHg 59%
    03:00 +20°C° 0 mm 3 mps 744 mmHg 59%
    04:00 +20°C° 0 mm 3 mps 744 mmHg 58%
    05:00 +21°C° 0 mm 2 mps 745 mmHg 55%
    06:00 +24°C° 0 mm 2 mps 745 mmHg 51%
    07:00 +26°C° 0 mm 2 mps 746 mmHg 48%
    08:00 +28°C° 0 mm 2 mps 746 mmHg 43%
    09:00 +29°C° 0 mm 1 mps 746 mmHg 39%
    10:00 +31°C° 0 mm 1 mps 746 mmHg 34%
    11:00 +32°C° 0 mm 1 mps 746 mmHg 34%
    12:00 +34°C° 0 mm 2 mps 746 mmHg 33%
    13:00 +34°C° 0 mm 3 mps 746 mmHg 32%
    14:00 +34°C° 0 mm 3 mps 746 mmHg 35%
    15:00 +33°C° 0 mm 3 mps 746 mmHg 38%
    16:00 +32°C° 0 mm 4 mps 745 mmHg 42%
    17:00 +29°C° 0 mm 3 mps 745 mmHg 48%
    18:00 +27°C° 0 mm 2 mps 746 mmHg 54%
    19:00 +26°C° 0 mm 1 mps 746 mmHg 61%
    20:00 +25°C° 0 mm 1 mps 746 mmHg 62%
    21:00 +24°C° 0 mm 1 mps 746 mmHg 63%
    22:00 +23°C° 0 mm 1 mps 747 mmHg 63%
    23:00 +23°C° 0 mm 2 mps 746 mmHg 62%
    Show more